TEVEL2-5

Last updated on Sat Aug 15 2026 00:03:15 GMT+0000 (Coordinated Universal Time)

1 63214U 25052E 26226.46585796 .00011254 00000+0 32021-3 0 9991 2 63214 97.3812 122.9410 0000355 169.6817 190.4434 15.36298679 79050
UTC large
Height (km)
Speed (km/s)
/
Latitude / Longitude
Inclination (degrees)
Orbital Period (minutes)
Azimuth
Elevation
Range (km)
Doppler Factor

Next 0 passes for location: London (51.5072 / 0.1276)

No passes found over London.
TEVEL2-5